• In Lithuania
  • List of Countries
  • For 7 days
  • Water Temperature
  • Satellite Maps
  • Weather Map
  • Weather Widgets
  • user-avatar
    Login

    Hourly Weather Sarbice

    Today, 18 July, Wednesday

    Time Temperature Precipitation Wind Pressure Humidity
    00:00 +19°C° 0.1 mm 3 mps 745 mmHg 97%
    01:00 +19°C° 0.1 mm 3 mps 745 mmHg 97%
    02:00 +19°C° 0 mm 3 mps 745 mmHg 97%
    03:00 +19°C° 0 mm 3 mps 745 mmHg 98%
    04:00 +19°C° 0 mm 3 mps 745 mmHg 98%
    05:00 +20°C° 0.2 mm 3 mps 745 mmHg 96%
    06:00 +20°C° 0.2 mm 3 mps 745 mmHg 95%
    07:00 +21°C° 0.2 mm 4 mps 745 mmHg 94%
    08:00 +22°C° 0.3 mm 4 mps 746 mmHg 90%
    09:00 +23°C° 0.3 mm 4 mps 746 mmHg 87%
    10:00 +25°C° 0.3 mm 4 mps 746 mmHg 84%
    11:00 +26°C° 0.7 mm 4 mps 746 mmHg 80%
    12:00 +27°C° 0.7 mm 4 mps 746 mmHg 76%
    13:00 +27°C° 0.7 mm 5 mps 746 mmHg 72%
    14:00 +27°C° 1 mm 5 mps 747 mmHg 74%
    15:00 +27°C° 1 mm 6 mps 747 mmHg 75%
    16:00 +27°C° 1 mm 6 mps 747 mmHg 76%
    17:00 +26°C° 0.4 mm 6 mps 747 mmHg 80%
    18:00 +24°C° 0.4 mm 6 mps 748 mmHg 83%
    19:00 +23°C° 0.4 mm 6 mps 748 mmHg 87%
    20:00 +22°C° 0.1 mm 6 mps 748 mmHg 89%
    21:00 +21°C° 0.1 mm 6 mps 749 mmHg 91%
    22:00 +21°C° 0.1 mm 5 mps 749 mmHg 93%
    23:00 +20°C° 0 mm 5 mps 749 mmHg 93%

    Tomorrow, 19 July, Thursday

    Time Temperature Precipitation Wind Pressure Humidity
    00:00 +20°C° 0 mm 5 mps 749 mmHg 94%
    01:00 +20°C° 0 mm 5 mps 749 mmHg 94%
    02:00 +20°C° 0.2 mm 5 mps 749 mmHg 94%
    03:00 +20°C° 0.2 mm 5 mps 749 mmHg 94%
    04:00 +19°C° 0.2 mm 4 mps 750 mmHg 95%
    05:00 +19°C° 0.5 mm 4 mps 750 mmHg 94%
    06:00 +19°C° 0.5 mm 4 mps 750 mmHg 94%
    07:00 +20°C° 0.5 mm 4 mps 750 mmHg 94%
    08:00 +20°C° 0.2 mm 4 mps 750 mmHg 93%
    09:00 +20°C° 0.2 mm 4 mps 750 mmHg 93%
    10:00 +20°C° 0.2 mm 4 mps 750 mmHg 92%
    11:00 +21°C° 0.2 mm 4 mps 750 mmHg 90%
    12:00 +22°C° 0.2 mm 4 mps 750 mmHg 87%
    13:00 +22°C° 0.2 mm 4 mps 750 mmHg 85%
    14:00 +23°C° 0.1 mm 4 mps 750 mmHg 82%
    15:00 +23°C° 0.1 mm 4 mps 750 mmHg 80%
    16:00 +25°C° 0.1 mm 4 mps 750 mmHg 78%
    17:00 +23°C° 0.2 mm 4 mps 750 mmHg 80%
    18:00 +23°C° 0.2 mm 4 mps 751 mmHg 82%
    19:00 +22°C° 0.2 mm 3 mps 751 mmHg 84%
    20:00 +21°C° 0.2 mm 3 mps 751 mmHg 86%
    21:00 +21°C° 0.2 mm 3 mps 751 mmHg 88%
    22:00 +20°C° 0.2 mm 4 mps 751 mmHg 90%
    23:00 +19°C° 0 mm 3 mps 751 mmHg 92%

    Day after tomorrow, 20 July, Friday

    Time Temperature Precipitation Wind Pressure Humidity
    00:00 +19°C° 0 mm 3 mps 751 mmHg 93%
    01:00 +19°C° 0 mm 3 mps 751 mmHg 95%
    02:00 +18°C° 0 mm 3 mps 751 mmHg 95%
    03:00 +18°C° 0 mm 3 mps 751 mmHg 96%
    04:00 +17°C° 0 mm 3 mps 751 mmHg 96%
    05:00 +18°C° 0 mm 3 mps 751 mmHg 93%
    06:00 +19°C° 0 mm 3 mps 751 mmHg 90%
    07:00 +20°C° 0 mm 3 mps 751 mmHg 86%
    08:00 +21°C° 0.1 mm 4 mps 751 mmHg 80%
    09:00 +23°C° 0.1 mm 4 mps 751 mmHg 74%
    10:00 +25°C° 0.1 mm 4 mps 751 mmHg 68%
    11:00 +26°C° 0.2 mm 5 mps 751 mmHg 65%
    12:00 +26°C° 0.2 mm 5 mps 751 mmHg 62%
    13:00 +27°C° 0.2 mm 5 mps 751 mmHg 59%
    14:00 +27°C° 0 mm 5 mps 750 mmHg 59%
    15:00 +27°C° 0 mm 5 mps 750 mmHg 59%
    16:00 +27°C° 0 mm 5 mps 750 mmHg 59%
    17:00 +26°C° 0 mm 5 mps 750 mmHg 64%
    18:00 +25°C° 0 mm 4 mps 750 mmHg 70%
    19:00 +24°C° 0 mm 3 mps 750 mmHg 75%
    20:00 +22°C° 0 mm 3 mps 750 mmHg 78%
    21:00 +20°C° 0 mm 3 mps 751 mmHg 81%
    22:00 +19°C° 0 mm 3 mps 751 mmHg 84%
    23:00 +19°C° 0 mm 3 mps 751 mmHg 85%

    21 July, Saturday

    Time Temperature Precipitation Wind Pressure Humidity
    00:00 +18°C° 0 mm 2 mps 751 mmHg 86%
    01:00 +17°C° 0 mm 2 mps 750 mmHg 87%
    02:00 +17°C° 0 mm 2 mps 750 mmHg 87%
    03:00 +16°C° 0 mm 2 mps 750 mmHg 87%
    04:00 +16°C° 0 mm 1 mps 750 mmHg 87%
    05:00 +18°C° 0 mm 1 mps 750 mmHg 82%
    06:00 +18°C° 0 mm 2 mps 750 mmHg 76%
    07:00 +19°C° 0 mm 2 mps 750 mmHg 71%
    08:00 +21°C° 0 mm 2 mps 750 mmHg 65%
    09:00 +23°C° 0 mm 2 mps 750 mmHg 58%
    10:00 +24°C° 0 mm 3 mps 750 mmHg 52%
    11:00 +25°C° 0 mm 3 mps 750 mmHg 49%
    12:00 +26°C° 0 mm 3 mps 750 mmHg 47%
    13:00 +26°C° 0 mm 3 mps 749 mmHg 44%
    14:00 +26°C° 0 mm 3 mps 749 mmHg 45%
    15:00 +26°C° 0 mm 3 mps 749 mmHg 46%
    16:00 +27°C° 0 mm 3 mps 749 mmHg 46%
    17:00 +25°C° 0 mm 2 mps 749 mmHg 51%
    18:00 +24°C° 0 mm 2 mps 749 mmHg 56%
    19:00 +23°C° 0 mm 1 mps 749 mmHg 61%
    20:00 +22°C° 0 mm 1 mps 749 mmHg 61%
    21:00 +21°C° 0 mm 1 mps 749 mmHg 62%
    22:00 +20°C° 0 mm 1 mps 749 mmHg 62%
    23:00 +19°C° 0 mm 1 mps 749 mmHg 65%

    22 July, Sunday

    Time Temperature Precipitation Wind Pressure Humidity
    00:00 +19°C° 0 mm 1 mps 749 mmHg 69%
    01:00 +18°C° 0 mm 1 mps 749 mmHg 72%
    02:00 +18°C° 0 mm 1 mps 749 mmHg 75%
    03:00 +16°C° 0 mm 1 mps 749 mmHg 78%
    04:00 +16°C° 0 mm 1 mps 749 mmHg 81%
    05:00 +18°C° 0 mm 1 mps 749 mmHg 78%
    06:00 +20°C° 0 mm 1 mps 749 mmHg 76%
    07:00 +20°C° 0 mm 2 mps 749 mmHg 73%
    08:00 +21°C° 0 mm 2 mps 749 mmHg 69%
    09:00 +24°C° 0 mm 2 mps 749 mmHg 65%
    10:00 +25°C° 0 mm 2 mps 749 mmHg 61%
    11:00 +26°C° 0.1 mm 2 mps 749 mmHg 58%
    12:00 +26°C° 0.1 mm 2 mps 749 mmHg 55%
    13:00 +27°C° 0.1 mm 3 mps 749 mmHg 53%
    14:00 +27°C° 0.1 mm 3 mps 749 mmHg 54%
    15:00 +27°C° 0.1 mm 3 mps 749 mmHg 54%
    16:00 +27°C° 0.1 mm 4 mps 749 mmHg 55%
    17:00 +26°C° 0 mm 3 mps 749 mmHg 60%
    18:00 +25°C° 0 mm 3 mps 749 mmHg 64%
    19:00 +24°C° 0 mm 2 mps 749 mmHg 68%
    20:00 +22°C° 0 mm 3 mps 750 mmHg 71%
    21:00 +20°C° 0 mm 3 mps 750 mmHg 73%
    22:00 +19°C° 0 mm 3 mps 750 mmHg 75%
    23:00 +19°C° 0 mm 3 mps 751 mmHg 78%

    23 July, Monday

    Time Temperature Precipitation Wind Pressure Humidity
    00:00 +18°C° 0 mm 3 mps 751 mmHg 81%
    01:00 +17°C° 0 mm 2 mps 751 mmHg 83%
    02:00 +17°C° 0 mm 2 mps 751 mmHg 84%
    03:00 +16°C° 0 mm 2 mps 751 mmHg 84%
    04:00 +16°C° 0 mm 2 mps 752 mmHg 85%
    05:00 +17°C° 0 mm 2 mps 752 mmHg 81%
    06:00 +18°C° 0 mm 3 mps 752 mmHg 78%
    07:00 +20°C° 0 mm 3 mps 752 mmHg 74%
    08:00 +21°C° 0 mm 3 mps 752 mmHg 69%
    09:00 +22°C° 0 mm 4 mps 752 mmHg 65%
    10:00 +23°C° 0 mm 4 mps 752 mmHg 60%
    11:00 +25°C° 0 mm 4 mps 752 mmHg 58%
    12:00 +25°C° 0 mm 4 mps 752 mmHg 56%
    13:00 +26°C° 0 mm 5 mps 752 mmHg 54%
    14:00 +26°C° 0 mm 4 mps 752 mmHg 55%
    15:00 +26°C° 0 mm 4 mps 752 mmHg 55%
    16:00 +26°C° 0 mm 4 mps 751 mmHg 55%
    17:00 +25°C° 0 mm 4 mps 752 mmHg 60%
    18:00 +24°C° 0 mm 3 mps 752 mmHg 66%
    19:00 +22°C° 0 mm 3 mps 752 mmHg 71%
    20:00 +20°C° 0 mm 3 mps 752 mmHg 74%
    21:00 +19°C° 0 mm 3 mps 752 mmHg 78%
    22:00 +18°C° 0 mm 3 mps 753 mmHg 81%
    23:00 +17°C° 0 mm 3 mps 753 mmHg 84%
    Show more